sat.trackr.live / text

‹ back to catalog

LYRA-3

NORAD 64577 · 2025-135BB

PAYLOAD ACTIVE UNKNOWN

§ Identity

Operator
Country
AUS
Launch date
2025-06-23
Launch site
AFWTR
Launch vehicle
Mass (kg)
RCS (m²)

External: N2YO · Heavens-Above · Gunter

§ Orbital elements

Epoch: 2026-05-25T05:21:55.927008Z

Period
97.67 min
Inclination
97.7716°
Eccentricity
0.0022005
Mean motion
14.74405831 rev/d
Perigee alt
631.6 km
Apogee alt
662.5 km
Semi-major
7,025.2 km
B*
2.0363e-4
RAAN
251.1609°
Arg perigee
59.1554°
Mean anomaly
301.1816°
Rev number
4,988

§ Raw data

LYRA-31 64577U 25135BB  26145.22356397  .00001307  00000+0  20363-3 0  99972 64577  97.7716 251.1609 0022005  59.1554 301.1816 14.74405831 49886

JSON: /api/v1/satellites/64577 · /tle

For live sub-satellite position, see the globe view (requires WebGL).

§ Visibility from observer

Set your observer location to see the next 7 days of passes ≥ 10°. The values pass through the URL so the page stays shareable.

No JS? Fill the form by hand. The geolocation button needs JavaScript.

§ Radio — SatNOGS DB

ModeDescriptionDownlinkUplink
FM Telemetry 400.500 MHz

1 transmitter · refreshed weekly from db.satnogs.org